Location: Gleizolles
(44.4833°N, 6.7667°E)
Time: 13:59:52
(UTC+00:00)

A-11 Canister half - Pass Details

Date: 13 June 2024
Orbit: 1515 x 1684 km, 47.2° (Epoch: 24 July)

Event Time Altitude Azimuth Distance (km) Brightness Sun altitude
Rises 22:29:07 0° 273° (W) 4,878 11.9 -20.7°
Reaches altitude 10° 22:32:19 10° 275° (W) 3,871 11.3 -20.8°
Maximum altitude 22:42:12 76° 1° (N) 1,636 9.2 -21.2°
Drops below altitude 10° 22:51:43 10° 88° (E) 3,735 10.9 -21.6°
Sets 22:54:45 0° 90° (E) 4,700 11.5 -21.7°
